TimeCDT,TemperatureF,Dew PointF,Humidity,Sea Level PressureIn,VisibilityMPH,Wind Direction,Wind SpeedMPH,Gust SpeedMPH,PrecipitationIn,Events,Conditions,WindDirDegrees,DateUTC
12:55 AM,77.0,71.1,82,29.96,10.0,SSW,4.6,-,N/A,,Clear,210,2013-08-30 05:55:00
1:55 AM,77.0,71.1,82,29.95,10.0,SSW,5.8,-,N/A,,Clear,210,2013-08-30 06:55:00
2:55 AM,78.1,71.1,79,29.94,10.0,SW,4.6,-,N/A,,Clear,220,2013-08-30 07:55:00
3:55 AM,77.0,71.1,82,29.95,10.0,SW,3.5,-,N/A,,Clear,220,2013-08-30 08:55:00
4:55 AM,75.9,71.1,85,29.94,10.0,SSW,4.6,-,N/A,,Clear,210,2013-08-30 09:55:00
5:55 AM,73.9,71.1,91,29.94,10.0,SSW,4.6,-,N/A,,Partly Cloudy,210,2013-08-30 10:55:00
6:55 AM,73.9,71.1,91,29.94,10.0,SSW,4.6,-,N/A,,Clear,210,2013-08-30 11:55:00
7:55 AM,78.1,71.1,79,29.95,10.0,SW,5.8,-,N/A,,Clear,220,2013-08-30 12:55:00
8:55 AM,82.9,71.1,67,29.94,10.0,SW,5.8,-,N/A,,Clear,230,2013-08-30 13:55:00
9:55 AM,86.0,70.0,59,29.94,10.0,SW,10.4,-,N/A,,Clear,230,2013-08-30 14:55:00
10:55 AM,91.9,69.1,47,29.93,10.0,West,8.1,-,N/A,,Clear,270,2013-08-30 15:55:00
11:55 AM,93.9,68.0,43,29.90,10.0,SSW,10.4,-,N/A,,Clear,210,2013-08-30 16:55:00
12:55 PM,98.1,66.9,36,29.89,10.0,West,8.1,-,N/A,,Clear,260,2013-08-30 17:55:00
1:55 PM,100.9,64.9,31,29.87,10.0,SW,8.1,17.3,N/A,,Clear,220,2013-08-30 18:55:00
2:55 PM,100.9,62.1,28,29.85,10.0,West,8.1,16.1,N/A,,Clear,260,2013-08-30 19:55:00
3:55 PM,102.0,62.1,27,29.83,10.0,WNW,8.1,16.1,N/A,,Scattered Clouds,290,2013-08-30 20:55:00
4:55 PM,100.0,62.1,29,29.83,10.0,West,6.9,-,N/A,,Partly Cloudy,260,2013-08-30 21:55:00
5:55 PM,99.0,62.1,30,29.82,10.0,SW,5.8,-,N/A,,Clear,230,2013-08-30 22:55:00
6:55 PM,93.9,66.9,41,29.81,10.0,SW,8.1,-,N/A,,Clear,220,2013-08-30 23:55:00
7:55 PM,89.1,66.9,48,29.82,10.0,SW,5.8,-,N/A,,Clear,220,2013-08-31 00:55:00
8:55 PM,84.9,68.0,57,29.83,10.0,SSW,5.8,-,N/A,,Clear,200,2013-08-31 01:55:00
9:55 PM,84.0,66.9,56,29.82,10.0,SW,5.8,-,N/A,,Clear,220,2013-08-31 02:55:00
10:55 PM,82.0,68.0,62,29.81,10.0,SW,5.8,-,N/A,,Clear,220,2013-08-31 03:55:00
11:55 PM,82.0,69.1,65,29.82,10.0,SW,5.8,-,N/A,,Clear,230,2013-08-31 04:55:00